GW4864 Weather Reports


Display with metric or nautical units.
time (UTC)temp
F
wind
direction
speed
MPH
gust
MPH
rain 1hr
in
rain 24hr
in
rain mn
in
humidity
%
barometer
mb
20260507211552 55 73 1.0 4.0 0.00 0.08 0.08 79 1010.2
20260507210045 55 95 0.0 3.0 0.00 0.08 0.08 80 1010.3
20260507204542 55 105 1.0 3.0 0.00 0.08 0.08 76 1010.2
20260507203050 54 116 2.0 6.0 0.00 0.08 0.08 77 1010.0
20260507201550 53 0 0.0 4.0 0.00 0.08 0.08 82 1010.7
20260507200043 53 118 1.0 6.0 0.01 0.08 0.08 79 1010.8
20260507194548 53 139 2.0 6.0 0.02 0.08 0.08 84 1010.7
20260507193045 52 138 2.0 4.0 0.04 0.08 0.08 85 1011.0
20260507191547 52 0 0.0 5.0 0.04 0.08 0.08 86 1011.3
20260507190046 53 115 2.0 6.0 0.03 0.07 0.07 86 1011.1
20260507184548 52 0 0.0 6.0 0.02 0.06 0.06 86 1011.4
20260507183051 53 158 1.0 4.0 0.00 0.04 0.04 76 1011.1
20260507181551 54 132 3.0 9.0 0.00 0.04 0.04 71 1011.1
20260507180050 55 166 1.0 4.0 0.00 0.04 0.04 79 1011.3
20260507174542 55 0 0.0 2.0 0.00 0.04 0.04 79 1011.4
20260507173059 55 0 1.0 3.0 0.00 0.04 0.04 76 1011.7
20260507171549 55 330 1.0 4.0 0.00 0.04 0.04 75 1011.5
20260507170050 55 196 0.0 3.0 0.00 0.04 0.04 75 1011.8
20260507164542 56 151 1.0 4.0 0.00 0.04 0.04 79 1011.7
20260507163043 56 158 0.0 7.0 0.00 0.04 0.04 79 1011.9
20260507161550 55 157 2.0 4.0 0.00 0.04 0.04 80 1012.0
20260507160044 55 0 0.0 4.0 0.00 0.04 0.04 82 1012.2
20260507154546 55 0 0.0 2.0 0.00 0.04 0.04 85 1012.4
20260507153045 55 0 0.0 2.0 0.00 0.04 0.04 86 1012.4
20260507151542 54 0 0.0 2.0 0.00 0.04 0.04 86 1012.5
20260507150039 54 0 0.0 6.0 0.00 0.04 0.04 87 1012.3
20260507144546 54 278 0.0 3.0 0.01 0.05 0.04 90 1012.2
20260507143056 53 0 0.0 4.0 0.01 0.05 0.04 90 1012.7
20260507141542 53 0 0.0 3.0 0.01 0.05 0.04 90 1012.6
20260507140053 53 0 0.0 2.0 0.02 0.05 0.04 90 1012.9
20260507134541 54 155 0.0 3.0 0.01 0.06 0.03 89 1012.7
20260507133047 54 222 0.0 3.0 0.01 0.06 0.03 89 1012.6
20260507131548 54 0 0.0 1.0 0.01 0.06 0.03 88 1012.6
20260507130058 54 0 0.0 3.0 0.00 0.05 0.02 89 1012.8
20260507124541 53 0 0.0 2.0 0.00 0.05 0.02 89 1012.7
20260507123043 53 0 0.0 2.0 0.00 0.05 0.02 89 1012.5
20260507121544 54 0 0.0 3.0 0.00 0.05 0.02 89 1012.4
20260507120052 54 0 0.0 3.0 0.00 0.05 0.02 88 1012.4
20260507114546 54 0 0.0 2.0 0.00 0.05 0.02 88 1012.3
20260507113046 54 159 0.0 2.0 0.00 0.05 0.02 88 1012.1
20260507111544 54 0 0.0 3.0 0.00 0.05 0.02 88 1012.1
20260507110055 54 231 0.0 3.0 0.00 0.05 0.02 88 1011.3
20260507104549 54 0 0.0 2.0 0.00 0.05 0.02 88 1011.3
20260507103115 55 117 1.0 5.0 0.00 0.05 0.02 89 1011.3
20260507101540 55 0 1.0 3.0 0.00 0.05 0.02 90 1011.2
20260507100057 55 0 1.0 11.0 0.00 0.05 0.02 90 1011.4
20260507094542 56 0 0.0 6.0 0.00 0.05 0.02 91 1010.7
20260507093043 56 244 0.0 2.0 0.00 0.05 0.02 92 1010.7
20260507091544 56 0 1.0 8.0 0.00 0.05 0.02 92 1011.1
20260507090039 56 0 1.0 7.0 0.00 0.05 0.02 92 1010.9
20260507084547 57 0 0.0 4.0 0.00 0.05 0.02 92 1010.5
20260507083045 57 0 0.0 2.0 0.00 0.05 0.02 93 1010.7
20260507081540 57 207 0.0 6.0 0.00 0.05 0.02 93 1010.6
20260507080045 59 158 1.0 4.0 0.00 0.05 0.02 93 1010.3
20260507074538 63 131 1.0 4.0 0.00 0.05 0.02 94 1010.3
20260507073043 63 248 0.0 2.0 0.00 0.05 0.02 94 1009.8
20260507071545 63 0 0.0 1.0 0.00 0.05 0.02 94 1009.4
20260507070100 63 0 0.0 0.0 0.01 0.05 0.02 94 1009.3
20260507064548 63 304 0.0 3.0 0.01 0.05 0.02 94 1008.9
20260507063048 63 295 0.0 3.0 0.01 0.05 0.02 94 1009.4
20260507061545 63 242 0.0 3.0 0.01 0.05 0.02 94 1009.5
20260507060053 63 298 0.0 2.0 0.00 0.04 0.01 94 1009.6
20260507054613 63 326 0.0 2.0 0.00 0.04 0.01 94 1009.2
20260507053102 63 62 0.0 2.0 0.00 0.04 0.01 93 1008.3
20260507051555 63 0 0.0 1.0 0.01 0.04 0.01 93 1008.6
20260507050054 64 0 0.0 3.0 0.01 0.04 0.01 92 1008.7
20260507044555 64 0 0.0 3.0 0.01 0.04 0.01 92 1009.0
20260507043045 64 54 0.0 4.0 0.01 0.04 0.01 91 1009.5
20260507041555 64 333 0.0 3.0 0.00 0.03 0.00 91 1009.7
20260507040051 63 25 0.0 2.0 0.00 0.03 0.00 90 1010.1
20260507034544 63 0 0.0 2.0 0.00 0.03 0.03 90 1009.8
20260507033043 63 0 0.0 0.0 0.00 0.03 0.03 90 1010.2
20260507031547 63 0 0.0 1.0 0.00 0.03 0.03 89 1010.4
20260507030043 64 0 0.0 1.0 0.00 0.03 0.03 89 1010.0
20260507024541 64 0 0.0 1.0 0.00 0.03 0.03 88 1010.2
20260507023041 65 0 0.0 2.0 0.00 0.03 0.03 86 1009.9
20260507021541 65 57 0.0 2.0 0.00 0.03 0.03 86 1008.9
20260507020059 64 49 0.0 2.0 0.00 0.03 0.03 88 1008.8
20260507014552 64 0 0.0 1.0 0.00 0.03 0.03 87 1009.6
20260507013047 64 0 0.0 1.0 0.00 0.03 0.03 86 1009.5
20260507011557 65 0 0.0 1.0 0.00 0.03 0.03 85 1009.5
20260507010046 65 0 0.0 2.0 0.00 0.03 0.03 84 1009.7
20260507004539 66 0 0.0 3.0 0.00 0.03 0.03 82 1009.5
20260507003043 67 338 0.0 2.0 0.00 0.03 0.03 82 1009.4
20260507001558 67 331 0.0 4.0 0.00 0.03 0.03 81 1009.5
20260507000054 68 20 1.0 3.0 0.00 0.03 0.03 80 1009.4
20260506234554 68 336 1.0 3.0 0.00 0.03 0.03 79 1009.4
20260506233048 69 317 1.0 6.0 0.00 0.03 0.03 78 1009.4
20260506231544 69 319 1.0 6.0 0.00 0.03 0.03 76 1009.4
20260506230052 70 306 1.0 8.0 0.00 0.03 0.03 75 1009.2
20260506224540 71 298 3.0 9.0 0.00 0.03 0.03 74 1009.2
20260506223042 71 317 3.0 8.0 0.00 0.03 0.03 73 1009.2
20260506221556 71 239 2.0 10.0 0.00 0.03 0.03 74 1009.3
20260506220049 71 338 2.0 9.0 0.00 0.03 0.03 75 1009.2
20260506214541 70 5 2.0 5.0 0.00 0.03 0.03 76 1009.2
20260506213055 70 336 2.0 8.0 0.00 0.03 0.03 76 1009.2